1488934801.07,43509,8.56,73114.3,-11.97,-21.83,-22.47,0,*6E
1488934802.33,43510,8.56,73116.3,-11.97,-21.83,-22.57,0,*67
1488934803.58,43511,8.56,73114.3,-11.97,-21.93,-22.63,0,*60
1488934804.83,43512,8.56,73116.8,-11.97,-21.93,-22.57,0,*64
1488934806.07,43513,8.56,73116.0,-11.97,-21.93,-22.57,0,*65
1488934807.35,43514,8.56,73114.0,-11.97,-21.93,-22.47,0,*63
1488934808.62,43515,8.56,73114.0,-11.97,-21.83,-22.57,0,*62
1488934809.86,43516,8.63,73116.3,-11.97,-21.93,-22.57,0,*60
1488934811.11,43517,8.63,73118.5,-11.95,-21.87,-22.57,0,*66
1488934812.36,43518,8.56,73116.0,-11.95,-21.87,-22.53,0,*6D
1488934813.6,43519,8.63,73114.5,-11.97,-21.93,-22.57,0,*6F
1488934814.85,43520,8.56,73116.3,-11.97,-21.93,-22.57,0,*65
1488934816.1,43521,8.63,73118.8,-11.97,-21.93,-22.57,0,*64
1488934817.38,43522,8.56,73116.5,-11.97,-21.97,-22.73,0,*65
1488934818.63,43523,8.63,73114.5,-11.97,-21.93,-22.63,0,*61
1488934819.87,43524,8.56,73112.3,-11.97,-21.93,-22.57,0,*61
1488934821.14,43525,8.56,73114.3,-11.97,-21.93,-22.73,0,*66
1488934822.44,43526,8.56,73118.3,-11.97,-21.83,-22.47,0,*63
1488934823.71,43527,8.56,73114.5,-11.97,-21.83,-22.57,0,*63
1488934824.93,43528,8.56,73112.0,-11.95,-21.77,-22.57,0,*65
1488934826.15,43529,8.56,73116.0,-11.95,-21.77,-22.37,0,*62
1488934827.36,43530,8.56,73118.0,-11.95,-21.73,-22.37,0,*6E
1488934828.58,43531,8.56,73114.8,-11.95,-21.63,-22.37,0,*6E
1488934829.79,43532,8.56,73114.3,-11.95,-21.63,-22.37,0,*6D
1488934831.01,43533,8.56,73114.3,-11.95,-21.63,-22.37,0,*6C
1488934832.22,43534,8.56,73112.5,-11.95,-21.39,-22.03,0,*63
1488934833.47,43535,8.56,73116.3,-11.95,-21.47,-22.17,0,*6E
1488934834.72,43536,8.56,73112.5,-11.95,-21.63,-22.31,0,*6F
1488934835.94,43537,8.56,73116.8,-11.91,-21.77,-22.37,0,*69
1488934837.2,43538,8.56,73112.3,-11.95,-21.57,-22.21,0,*67
1488934838.45,43539,8.56,73112.5,-11.95,-21.63,-22.31,0,*60
1488934839.66,43540,8.56,73116.5,-11.91,-21.73,-22.41,0,*6C
1488934840.9,43541,8.56,73116.8,-11.95,-21.47,-22.21,0,*68
1488934842.15,43542,8.56,73114.0,-11.95,-21.47,-22.21,0,*6B
1488934843.41,43543,8.56,73116.8,-11.91,-21.57,-22.21,0,*6F
1488934844.62,43544,8.56,73118.0,-11.91,-21.63,-22.41,0,*69
1488934845.84,43545,8.56,73118.3,-11.95,-21.73,-22.37,0,*6C
1488934847.05,43546,8.56,73116.8,-11.91,-21.77,-22.41,0,*6E
1488934848.28,43547,8.56,73110.5,-11.91,-21.73,-22.53,0,*68
1488934849.5,43548,8.56,73118.5,-11.95,-21.77,-22.57,0,*63
1488934850.71,43549,8.56,73114.8,-11.91,-21.73,-22.37,0,*64
1488934851.93,43550,8.63,73120.5,-11.91,-21.77,-22.37,0,*68
1488934853.15,43551,8.56,73112.0,-11.91,-21.77,-22.53,0,*6B
1488934854.37,43552,8.56,73116.0,-11.91,-21.73,-22.41,0,*6F
1488934855.63,43553,8.56,73114.5,-11.91,-21.57,-22.21,0,*6E
1488934856.85,43554,8.63,73116.3,-11.91,-21.63,-22.37,0,*69
1488934858.07,43555,8.56,73116.0,-11.91,-21.77,-22.37,0,*6D
1488934859.28,43556,8.56,73120.5,-11.91,-21.77,-22.37,0,*6E
1488934860.53,43557,8.56,73116.5,-11.91,-21.87,-22.57,0,*66
1488934861.78,43558,8.56,73118.8,-11.91,-21.87,-22.57,0,*69
1488934863.03,43559,8.56,73116.5,-11.91,-21.87,-22.53,0,*6C
1488934864.25,43560,8.56,73116.3,-11.91,-21.73,-22.37,0,*6F
1488934865.49,43561,8.56,73116.5,-11.91,-21.57,-22.37,0,*68
1488934866.7,43562,8.56,73118.5,-11.91,-21.73,-22.37,0,*6D
1488934868.01,43563,8.56,73114.0,-11.89,-21.53,-22.17,0,*65
1488934869.22,43564,8.56,73118.8,-11.91,-21.73,-22.37,0,*6B
1488934870.44,43565,8.56,73116.3,-11.91,-21.77,-22.57,0,*68
1488934871.66,43566,8.56,73118.3,-11.91,-21.93,-22.67,0,*62
1488934872.94,43567,8.56,73114.5,-11.89,-21.73,-22.47,0,*66
1488934874.21,43568,8.56,73116.5,-11.89,-21.67,-22.37,0,*6B
1488934875.42,43569,8.56,73120.0,-11.91,-21.73,-22.41,0,*67
1488934876.64,43570,8.56,73118.8,-11.91,-21.77,-22.37,0,*6A
1488934877.88,43571,8.56,73116.5,-11.89,-21.73,-22.37,0,*66
1488934879.15,43572,8.56,73118.0,-11.89,-21.67,-22.37,0,*60
1488934880.44,43573,8.56,73116.0,-11.89,-21.57,-22.31,0,*64
1488934881.71,43574,8.56,73114.0,-11.89,-21.57,-22.27,0,*64
1488934882.98,43575,8.56,73116.8,-11.87,-21.57,-22.31,0,*6C
1488934884.25,43576,8.56,73114.8,-11.89,-21.67,-22.27,0,*65
1488934885.49,43577,8.56,73114.5,-11.89,-21.43,-22.11,0,*67
1488934886.76,43578,8.56,73118.0,-11.89,-21.53,-22.11,0,*69
1488934887.98,43579,8.56,73116.8,-11.87,-21.43,-22.11,0,*67
1488934889.25,43580,8.56,73120.5,-11.89,-21.67,-22.27,0,*6C
1488934890.55,43581,8.56,73116.8,-11.89,-21.53,-22.31,0,*6D
1488934891.8,43582,8.56,73118.5,-11.87,-21.57,-22.27,0,*63
1488934893.08,43583,8.56,73114.8,-11.87,-21.53,-22.31,0,*61
1488934894.3,43584,8.56,73116.5,-11.87,-21.73,-22.37,0,*62
1488934895.54,43585,8.56,73116.8,-11.89,-21.73,-22.37,0,*6D
1488934896.81,43586,8.56,73114.8,-11.89,-21.73,-22.47,0,*69
1488934898.09,43587,8.56,73118.5,-11.87,-21.57,-22.31,0,*61
1488934899.37,43588,8.56,73116.0,-11.87,-21.53,-22.31,0,*6A
1488934900.66,43589,8.56,73116.0,-11.89,-21.57,-22.31,0,*61
1488934901.91,43590,8.56,73114.5,-11.87,-21.73,-22.47,0,*60
1488934903.17,43591,8.56,73116.5,-11.87,-21.83,-22.63,0,*68
1488934904.41,43592,8.56,73114.8,-11.87,-21.83,-22.53,0,*68
1488934905.67,43593,8.56,73118.8,-11.87,-21.73,-22.47,0,*63
1488934906.94,43594,8.56,73118.0,-11.89,-21.83,-22.53,0,*60
1488934908.18,43595,8.63,73116.5,-11.87,-21.83,-22.53,0,*6F
1488934909.44,43596,8.56,73116.0,-11.87,-21.87,-22.53,0,*68
1488934910.66,43597,8.56,73116.8,-11.87,-21.73,-22.37,0,*60
1488934911.9,43598,8.56,73116.0,-11.87,-21.67,-22.37,0,*6A
1488934913.14,43599,8.63,73120.3,-11.89,-21.39,-22.11,0,*6A
1488934914.42,43600,8.63,73122.5,-11.87,-21.57,-22.17,0,*69
1488934915.7,43601,8.56,73118.8,-11.87,-21.67,-22.31,0,*6F
1488934917.0,43602,8.63,73120.0,-11.89,-21.67,-22.47,0,*63
1488934918.28,43603,8.56,73114.5,-11.87,-21.83,-22.47,0,*66
1488934919.52,43604,8.63,73116.3,-11.89,-21.73,-22.37,0,*67
1488934920.77,43605,8.56,73116.8,-11.87,-21.53,-22.27,0,*6B
1488934922.06,43606,8.56,73114.8,-11.89,-21.57,-22.31,0,*65
1488934923.32,43607,8.63,73118.5,-11.87,-21.73,-22.31,0,*6C
1488934924.59,43608,8.56,73112.8,-11.87,-21.67,-22.31,0,*66
1488934925.85,43609,8.63,73116.8,-11.87,-21.53,-22.27,0,*67
1488934927.1,43610,8.56,73114.0,-11.87,-21.73,-22.47,0,*6B
1488934928.37,43611,8.63,73120.8,-11.87,-21.57,-22.31,0,*6D
1488934929.62,43612,8.56,73112.3,-11.87,-21.67,-22.37,0,*6B
1488934930.87,43613,8.56,73114.5,-11.87,-21.67,-22.37,0,*6A
1488934932.14,43614,8.56,73114.3,-11.87,-21.57,-22.31,0,*68
1488934933.38,43615,8.56,73114.0,-11.85,-21.63,-22.41,0,*6B
1488934934.68,43616,8.56,73116.0,-11.85,-21.67,-22.47,0,*6A
1488934935.93,43617,8.56,73118.8,-11.87,-21.73,-22.47,0,*6C
1488934937.19,43618,8.56,73114.8,-11.87,-21.73,-22.47,0,*63
1488934938.43,43619,8.56,73112.0,-11.87,-21.67,-22.37,0,*60
1488934939.71,43620,8.56,73114.8,-11.87,-21.67,-22.31,0,*6C
1488934940.96,43621,8.56,73116.0,-11.87,-21.73,-22.31,0,*68
1488934942.22,43622,8.56,73114.5,-11.87,-21.73,-22.47,0,*6A
1488934943.44,43623,8.56,73116.5,-11.87,-21.73,-22.53,0,*6E
1488934944.68,43624,8.56,73112.8,-11.89,-21.73,-22.37,0,*65
1488934945.9,43625,8.56,73116.0,-11.87,-21.73,-22.37,0,*6A
1488934947.16,43626,8.56,73116.8,-11.87,-21.73,-22.47,0,*6E
1488934948.41,43627,8.56,73112.3,-11.87,-21.83,-22.53,0,*65
1488934949.68,43628,8.56,73112.8,-11.89,-21.87,-22.63,0,*63
1488934950.93,43629,8.56,73118.3,-11.87,-21.87,-22.53,0,*6F
1488934952.2,43630,8.56,73116.0,-11.89,-21.83,-22.53,0,*6D
1488934953.47,43631,8.56,73112.8,-11.89,-21.83,-22.53,0,*6C
1488934954.72,43632,8.56,73114.3,-11.87,-21.83,-22.53,0,*61
1488934955.97,43633,8.56,73118.0,-11.87,-21.87,-22.63,0,*67
1488934957.23,43634,8.56,73118.5,-11.89,-22.03,-22.77,0,*64
1488934958.5,43635,8.56,73116.8,-11.89,-21.97,-22.67,0,*6A
1488934959.74,43636,8.56,73118.8,-11.87,-21.97,-22.67,0,*67
1488934961.03,43637,8.56,73112.0,-11.89,-21.97,-22.77,0,*69
1488934962.3,43638,8.56,73116.5,-11.89,-21.97,-22.67,0,*67
1488934963.57,43639,8.56,73114.5,-11.89,-21.83,-22.53,0,*64
1488934964.84,43640,8.56,73116.0,-11.89,-21.73,-22.47,0,*60
1488934966.11,43641,8.56,73116.0,-11.89,-21.67,-22.37,0,*63
1488934967.39,43642,8.56,73112.3,-11.87,-21.67,-22.47,0,*69
1488934968.66,43643,8.56,73114.0,-11.89,-21.67,-22.37,0,*61
1488934969.92,43644,8.56,73114.5,-11.89,-21.67,-22.37,0,*66
1488934971.2,43645,8.56,73114.5,-11.89,-21.73,-22.47,0,*65
1488934972.47,43646,8.56,73112.0,-11.89,-21.73,-22.47,0,*66
1488934973.75,43647,8.56,73112.5,-11.89,-21.73,-22.47,0,*67
1488934975.01,43648,8.56,73116.8,-11.89,-21.83,-22.63,0,*61
1488934976.28,43649,8.56,73114.0,-11.89,-21.83,-22.53,0,*63
1488934977.55,43650,8.56,73112.0,-11.89,-21.83,-22.53,0,*6B
1488934978.82,43651,8.56,73114.3,-11.89,-21.83,-22.53,0,*6A
1488934980.06,43652,8.56,73112.0,-11.89,-21.73,-22.37,0,*64
1488934981.29,43653,8.56,73112.8,-11.87,-21.73,-22.53,0,*69
1488934982.58,43654,8.56,73112.8,-11.89,-21.67,-22.31,0,*61
1488934983.85,43655,8.56,73118.5,-11.89,-21.67,-22.37,0,*66
1488934985.07,43656,8.56,73114.5,-11.87,-21.73,-22.53,0,*6C
1488934986.35,43657,8.56,73118.8,-11.89,-21.87,-22.63,0,*6B
1488934987.62,43658,8.56,73114.5,-11.89,-21.83,-22.53,0,*63
1488934988.88,43659,8.56,73112.8,-11.89,-21.83,-22.53,0,*62
1488934990.15,43660,8.56,73114.8,-11.89,-21.83,-22.63,0,*6B
1488934991.42,43661,8.56,73114.5,-11.89,-21.83,-22.53,0,*69
1488934992.72,43662,8.56,73110.8,-11.89,-21.67,-22.47,0,*65
1488934993.97,43663,8.56,73118.5,-11.89,-21.73,-22.53,0,*64
1488934995.21,43664,8.56,73114.0,-11.89,-21.73,-22.37,0,*61
1488934996.51,43665,8.56,73112.8,-11.89,-21.67,-22.47,0,*62
1488934997.75,43666,8.56,73114.8,-11.89,-21.73,-22.37,0,*63
1488934999.02,43667,8.56,73114.0,-11.89,-21.87,-22.53,0,*6B
1488935000.29,43668,8.56,73114.3,-11.89,-21.83,-22.53,0,*60
1488935001.59,43669,8.56,73114.0,-11.89,-21.83,-22.47,0,*64
1488935002.83,43670,8.56,73118.0,-11.89,-21.73,-22.53,0,*66
1488935004.11,43671,8.56,73114.3,-11.89,-21.73,-22.47,0,*62
1488935005.38,43672,8.56,73114.5,-11.89,-21.73,-22.47,0,*61
1488935006.65,43673,8.56,73112.5,-11.89,-21.73,-22.47,0,*60
1488935007.87,43674,8.56,73112.0,-11.91,-21.77,-22.41,0,*6C
1488935009.11,43675,8.56,73114.8,-11.89,-21.73,-22.37,0,*61
1488935010.33,43676,8.56,73112.3,-11.91,-21.77,-22.37,0,*6F
1488935011.54,43677,8.56,73114.8,-11.91,-21.77,-22.41,0,*6F
1488935012.76,43678,8.56,73116.5,-11.91,-21.77,-22.53,0,*63
1488935013.98,43679,8.56,73114.8,-11.91,-21.77,-22.41,0,*61
1488935015.22,43680,8.56,73114.3,-11.91,-21.63,-22.21,0,*64
1488935016.46,43681,8.56,73118.0,-11.91,-21.63,-22.31,0,*64
1488935017.73,43682,8.56,73114.8,-11.89,-21.57,-22.27,0,*6E
1488935019.02,43683,8.56,73118.5,-11.89,-21.57,-22.31,0,*68
1488935020.32,43684,8.56,73114.0,-11.89,-21.53,-22.31,0,*6B
1488935021.62,43685,8.56,73116.0,-11.89,-21.67,-22.31,0,*6D
1488935022.92,43686,8.56,73114.3,-11.89,-21.53,-22.31,0,*69
1488935024.19,43687,8.56,73112.3,-11.89,-21.67,-22.27,0,*68
1488935025.45,43688,8.56,73112.0,-11.89,-21.57,-22.37,0,*65
1488935026.76,43689,8.63,73118.3,-11.89,-21.67,-22.47,0,*60
1488935028.0,43690,8.56,73114.3,-11.87,-21.67,-22.37,0,*61
1488935029.28,43691,8.56,73112.8,-11.89,-21.73,-22.47,0,*6C
1488935030.55,43692,8.56,73112.0,-11.89,-21.83,-22.53,0,*65
1488935031.85,43693,8.56,73114.8,-11.89,-21.67,-22.47,0,*6B
1488935033.1,43694,8.56,73118.8,-11.87,-21.67,-22.27,0,*64
1488935034.36,43695,8.56,73112.5,-11.89,-21.67,-22.37,0,*6A
1488935035.61,43696,8.56,73116.8,-11.89,-21.73,-22.53,0,*6E
1488935036.89,43697,8.56,73116.0,-11.87,-21.83,-22.47,0,*6B
1488935038.14,43698,8.56,73112.5,-11.91,-21.87,-22.57,0,*66
1488935039.39,43699,8.56,73114.8,-11.91,-21.87,-22.53,0,*63
1488935040.61,43700,8.56,73114.3,-11.91,-21.77,-22.53,0,*6D
1488935041.85,43701,8.56,73114.3,-11.91,-21.87,-22.53,0,*63
1488935043.08,43702,8.56,73112.0,-11.91,-21.77,-22.53,0,*6F
1488935044.3,43703,8.56,73116.3,-11.95,-21.73,-22.53,0,*6E
1488935045.51,43704,8.56,73116.5,-11.91,-21.73,-22.41,0,*6E
1488935046.73,43705,8.56,73112.0,-11.91,-21.77,-22.41,0,*6B
1488935047.94,43706,8.56,73112.5,-11.91,-21.73,-22.41,0,*6C
1488935049.18,43707,8.56,73114.5,-11.91,-21.57,-22.37,0,*6A
1488935050.39,43708,8.56,73114.3,-11.91,-21.73,-22.41,0,*62
1488935051.62,43709,8.56,73116.3,-11.91,-21.77,-22.57,0,*60
1488935052.84,43710,8.56,73116.5,-11.91,-21.93,-22.83,0,*6B
1488935054.07,43711,8.56,73116.0,-11.91,-22.03,-22.73,0,*6F
1488935055.29,43712,8.56,73118.8,-11.91,-22.03,-22.83,0,*63
1488935056.53,43713,8.56,73112.3,-11.91,-21.87,-22.67,0,*67
1488935057.78,43714,8.56,73114.3,-11.91,-21.87,-22.57,0,*63
1488935059.0,43715,8.56,73114.3,-11.95,-21.73,-22.37,0,*6B
1488935060.21,43716,8.56,73116.3,-11.95,-21.63,-22.37,0,*69
1488935061.46,43717,8.56,73114.0,-11.95,-21.73,-22.31,0,*6F
1488935062.68,43718,8.56,73114.0,-11.95,-21.77,-22.41,0,*63
1488935063.9,43719,8.56,73118.5,-11.95,-21.77,-22.57,0,*65
1488935065.12,43720,8.56,73116.3,-11.95,-21.77,-22.67,0,*6C
1488935066.34,43721,8.56,73114.0,-11.95,-21.73,-22.57,0,*6A
1488935067.56,43722,8.56,73116.5,-11.91,-21.77,-22.53,0,*6D
1488935068.83,43723,8.56,73114.3,-11.95,-21.87,-22.73,0,*65
1488935070.05,43724,8.56,73112.8,-11.91,-21.93,-22.83,0,*6C
1488935071.29,43725,8.56,73112.3,-11.91,-21.93,-22.73,0,*62
1488935072.52,43726,8.56,73116.8,-11.95,-21.73,-22.57,0,*6D
1488935073.74,43727,8.56,73114.8,-11.95,-21.77,-22.53,0,*6C
1488935074.96,43728,8.56,73114.3,-11.95,-21.73,-22.53,0,*67
1488935076.2,43729,8.56,73112.8,-11.97,-21.77,-22.57,0,*64
1488935077.5,43730,8.56,73112.0,-11.97,-21.83,-22.47,0,*66
1488935078.75,43731,8.56,73116.8,-11.97,-21.93,-22.63,0,*60
1488935080.04,43732,8.56,73114.8,-11.97,-21.97,-22.73,0,*66
1488935081.28,43733,8.56,73114.8,-11.97,-21.93,-22.63,0,*62
1488935082.53,43734,8.56,73114.8,-11.97,-21.93,-22.63,0,*65
1488935083.82,43735,8.56,73112.8,-11.97,-21.83,-22.73,0,*64
1488935085.04,43736,8.56,73114.8,-11.95,-21.93,-22.67,0,*61
1488935086.26,43737,8.56,73114.8,-11.95,-21.93,-22.67,0,*60
1488935087.51,43738,8.56,73118.3,-11.95,-21.87,-22.57,0,*69
1488935088.75,43739,8.56,73116.0,-11.95,-21.87,-22.67,0,*6B
1488935089.98,43740,8.56,73114.8,-11.95,-21.77,-22.53,0,*6D
1488935091.2,43741,8.56,73114.8,-11.95,-21.77,-22.53,0,*6C
1488935092.45,43742,8.56,73114.8,-11.95,-21.87,-22.57,0,*64
1488935093.67,43743,8.56,73114.8,-11.95,-21.93,-22.67,0,*63
1488935094.92,43744,8.56,73112.3,-11.97,-21.93,-22.63,0,*62
1488935096.18,43745,8.56,73112.8,-11.97,-21.83,-22.57,0,*65
1488935097.4,43746,8.56,73118.3,-11.99,-21.77,-22.41,0,*64
1488935098.67,43747,8.56,73114.3,-11.97,-21.77,-22.47,0,*6D
1488935099.94,43748,8.56,73114.5,-11.97,-21.83,-22.63,0,*6F
1488935101.21,43749,8.56,73114.8,-11.97,-21.97,-22.63,0,*6B
1488935102.49,43750,8.56,73112.5,-11.97,-21.97,-22.73,0,*62
1488935103.74,43751,8.56,73116.5,-11.97,-21.93,-22.63,0,*66
1488935104.96,43752,8.56,73114.5,-11.99,-21.93,-22.63,0,*6B
1488935106.2,43753,8.56,73118.8,-11.99,-21.93,-22.73,0,*6B
1488935107.45,43754,8.56,73116.3,-11.97,-21.93,-22.57,0,*64
1488935108.69,43755,8.56,73114.0,-11.99,-21.83,-22.57,0,*6A
1488935109.96,43756,8.56,73118.0,-11.97,-21.83,-22.63,0,*60
1488935111.21,43757,8.56,73116.5,-11.97,-21.93,-22.63,0,*60
1488935112.48,43758,8.56,73116.3,-11.97,-21.67,-22.37,0,*65
1488935113.72,43759,8.56,73116.8,-11.99,-21.67,-22.37,0,*6A
1488935114.93,43760,8.56,73116.3,-11.99,-21.77,-22.41,0,*60
1488935116.17,43761,8.56,73114.5,-11.97,-21.77,-22.41,0,*6F
1488935117.42,43762,8.56,73116.8,-11.99,-21.77,-22.47,0,*64
1488935118.66,43763,8.56,73116.5,-11.99,-21.67,-22.41,0,*62
1488935119.9,43764,8.56,73118.8,-11.99,-21.67,-22.37,0,*64
1488935121.17,43765,8.56,73114.8,-11.99,-21.53,-22.21,0,*65
1488935122.42,43766,8.56,73114.5,-11.99,-21.53,-22.27,0,*60
1488935123.63,43767,8.56,73118.5,-11.99,-21.63,-22.37,0,*63
1488935124.9,43768,8.56,73116.5,-11.97,-21.77,-22.47,0,*60
1488935126.12,43769,8.56,73116.3,-11.99,-21.77,-22.41,0,*69
1488935127.36,43770,8.56,73118.8,-11.99,-21.77,-22.47,0,*67
1488935128.64,43771,8.56,73112.8,-11.97,-21.77,-22.47,0,*68
1488935129.88,43772,8.56,73118.8,-11.97,-21.63,-22.37,0,*69
1488935131.14,43773,8.56,73114.3,-11.97,-21.67,-22.41,0,*6D
1488935132.41,43774,8.56,73116.8,-11.97,-21.67,-22.57,0,*6D
1488935133.69,43775,8.56,73118.5,-11.99,-21.83,-22.47,0,*69
1488935134.93,43776,8.56,73116.8,-11.97,-21.77,-22.57,0,*6E
1488935136.2,43777,8.56,73116.8,-11.99,-21.83,-22.47,0,*6B
1488935137.45,43778,8.56,73118.5,-11.99,-21.93,-22.47,0,*65
1488935138.69,43779,8.56,73118.5,-11.99,-21.83,-22.57,0,*64
1488935139.97,43780,8.56,73114.0,-11.97,-21.83,-22.63,0,*6B
1488935141.21,43781,8.56,73116.0,-11.99,-21.83,-22.57,0,*63
1488935142.45,43782,8.56,73118.0,-11.99,-21.83,-22.57,0,*60
1488935143.69,43783,8.56,73116.3,-11.99,-21.93,-22.73,0,*66
1488935144.93,43784,8.56,73114.0,-11.99,-21.97,-22.87,0,*6E
1488935146.17,43785,8.56,73118.8,-11.99,-21.93,-22.73,0,*60
1488935147.41,43786,8.56,73116.8,-11.99,-21.93,-22.73,0,*63
1488935148.67,43787,8.56,73116.8,-11.99,-21.97,-22.73,0,*66
1488935149.89,43788,8.56,73112.3,-11.99,-21.93,-22.63,0,*6C
1488935151.13,43789,8.56,73118.0,-11.99,-21.97,-22.63,0,*69
1488935152.37,43790,8.56,73120.3,-11.99,-21.93,-22.73,0,*64
1488935153.6,43791,8.56,73118.8,-11.99,-21.93,-22.63,0,*64
1488935154.86,43792,8.56,73116.3,-12.01,-21.97,-22.63,0,*61
1488935156.1,43793,8.56,73116.3,-11.99,-21.97,-22.67,0,*66
1488935157.34,43794,8.56,73114.3,-11.99,-22.03,-22.77,0,*6E
1488935158.58,43795,8.56,73116.3,-11.99,-21.97,-22.53,0,*67
1488935159.86,43796,8.56,73118.3,-11.99,-21.87,-22.47,0,*60
1488935161.1,43797,8.56,73116.8,-11.99,-21.97,-22.63,0,*66
1488935162.34,43798,8.56,73114.0,-11.99,-22.03,-22.77,0,*62
1488935163.6,43799,8.56,73112.0,-11.99,-21.97,-22.77,0,*6D
1488935164.9,43800,8.56,73118.0,-12.01,-21.97,-22.77,0,*60
1488935166.13,43801,8.56,73118.0,-11.99,-21.97,-22.67,0,*62
1488935167.38,43802,8.56,73118.3,-11.99,-21.97,-22.63,0,*65
1488935168.65,43803,8.56,73118.0,-12.01,-21.87,-22.53,0,*64
1488935169.92,43804,8.56,73116.8,-12.01,-21.87,-22.63,0,*60
1488935171.19,43805,8.56,73116.8,-12.01,-21.83,-22.53,0,*66
1488935172.47,43806,8.56,73116.8,-12.01,-21.87,-22.63,0,*62
1488935173.74,43807,8.56,73116.5,-12.01,-21.87,-22.63,0,*63
1488935174.98,43808,8.56,73116.0,-12.01,-21.73,-22.41,0,*67
1488935176.23,43809,8.56,73118.5,-11.99,-21.73,-22.47,0,*62
1488935177.5,43810,8.56,73118.0,-12.01,-21.73,-22.47,0,*68
1488935178.8,43811,8.56,73116.3,-12.01,-21.83,-22.47,0,*66
1488935180.07,43812,8.56,73118.8,-12.01,-21.87,-22.53,0,*64
1488935181.34,43813,8.56,73112.8,-12.01,-21.83,-22.41,0,*62
1488935182.58,43814,8.56,73118.0,-12.01,-21.73,-22.41,0,*6A
1488935183.81,43815,8.56,73118.8,-12.01,-21.73,-22.41,0,*6B
1488935185.08,43816,8.56,73116.8,-12.01,-21.83,-22.53,0,*64
1488935186.35,43817,8.56,73118.8,-12.01,-21.83,-22.53,0,*65
1488935187.62,43818,8.56,73118.0,-12.01,-21.87,-22.53,0,*6E
1488935188.87,43819,8.56,73116.0,-11.99,-21.73,-22.31,0,*62
1488935190.15,43820,8.56,73112.5,-12.01,-21.73,-22.47,0,*6B
1488935191.36,43821,8.56,73114.3,-12.05,-21.93,-22.67,0,*62
1488935192.6,43822,8.56,73118.3,-12.01,-22.03,-22.67,0,*6F
1488935193.87,43823,8.56,73114.3,-12.01,-21.97,-22.67,0,*60
1488935195.13,43824,8.56,73116.8,-12.01,-21.97,-22.63,0,*63
1488935196.4,43825,8.56,73116.8,-12.01,-22.03,-22.77,0,*69
1488935197.66,43826,8.56,73120.5,-12.01,-22.03,-22.77,0,*6A
1488935198.93,43827,8.56,73118.5,-12.01,-22.03,-22.77,0,*6B
1488935200.14,43828,8.56,73116.0,-12.05,-22.07,-22.87,0,*6B
1488935201.35,43829,8.56,73118.3,-12.05,-22.07,-22.83,0,*6E
1488935202.58,43830,8.56,73116.5,-12.07,-22.03,-22.57,0,*69
1488935203.85,43831,8.56,73116.3,-12.07,-21.87,-22.53,0,*63
1488935205.1,43832,8.56,73118.0,-12.05,-21.87,-22.57,0,*66
1488935206.35,43833,8.56,73120.5,-12.05,-21.73,-22.47,0,*6D
1488935207.59,43834,8.56,73116.5,-12.05,-21.77,-22.47,0,*6E
1488935208.81,43835,8.56,73118.0,-12.05,-21.93,-22.67,0,*67
1488935210.03,43836,8.56,73118.8,-12.05,-21.93,-22.67,0,*64
1488935211.25,43837,8.56,73114.8,-12.05,-21.93,-22.67,0,*65
1488935212.49,43838,8.56,73118.0,-12.05,-21.87,-22.53,0,*68
1488935213.74,43839,8.56,73116.5,-12.05,-21.77,-22.47,0,*63
1488935214.99,43840,8.56,73118.3,-12.05,-21.93,-22.47,0,*67
1488935216.26,43841,8.56,73114.5,-12.07,-21.87,-22.57,0,*60
1488935217.53,43842,8.56,73116.3,-12.07,-21.73,-22.47,0,*69
1488935218.77,43843,8.56,73120.5,-12.05,-21.63,-22.31,0,*6A
1488935220.02,43844,8.56,73116.3,-12.05,-21.53,-22.37,0,*68
1488935221.26,43845,8.56,73116.3,-12.05,-21.77,-22.47,0,*68
1488935222.51,43846,8.56,73116.8,-12.05,-21.73,-22.47,0,*6F
1488935223.73,43847,8.56,73118.0,-12.05,-21.73,-22.37,0,*69
1488935224.97,43848,8.56,73118.3,-12.05,-21.87,-22.53,0,*6F
1488935226.22,43849,8.56,73118.5,-12.05,-21.73,-22.47,0,*60
1488935227.46,43850,8.56,73120.5,-12.07,-21.73,-22.37,0,*6D
1488935228.7,43851,8.56,73118.3,-12.07,-21.73,-22.37,0,*6C
1488935229.91,43852,8.56,73118.0,-12.05,-21.77,-22.53,0,*6B
1488935231.16,43853,8.56,73112.5,-12.05,-21.77,-22.31,0,*6E
1488935232.42,43854,8.56,73118.5,-12.05,-21.57,-22.21,0,*6A
1488935233.67,43855,8.56,73118.0,-12.05,-21.77,-22.47,0,*69
1488935234.91,43856,8.56,73114.8,-12.05,-21.87,-22.37,0,*62
1488935236.13,43857,8.56,73120.0,-12.05,-21.73,-22.37,0,*68
1488935237.39,43858,8.56,73116.0,-12.05,-21.57,-22.21,0,*66
1488935238.65,43859,8.56,73116.3,-12.07,-21.63,-22.31,0,*63
1488935239.89,43860,8.56,73118.0,-12.07,-21.73,-22.37,0,*6E
1488935241.17,43861,8.56,73118.3,-12.07,-21.77,-22.47,0,*6C
1488935242.41,43862,8.56,73116.5,-12.05,-21.73,-22.47,0,*69
1488935243.66,43863,8.56,73118.5,-12.05,-21.73,-22.31,0,*69
1488935244.9,43864,8.56,73116.0,-12.05,-21.63,-22.31,0,*6F
1488935246.11,43865,8.56,73120.0,-12.05,-21.63,-22.37,0,*68
1488935247.35,43866,8.56,73116.3,-12.07,-21.77,-22.37,0,*6C
1488935248.59,43867,8.56,73112.8,-12.05,-21.73,-22.31,0,*6D
1488935249.83,43868,8.56,73116.5,-12.01,-21.73,-22.41,0,*61
1488935251.07,43869,8.56,73116.5,-12.01,-21.39,-22.11,0,*6B
1488935252.34,43870,8.56,73120.3,-12.01,-21.33,-22.03,0,*6A
1488935253.58,43871,8.56,73116.0,-12.01,-21.39,-22.11,0,*62
1488935254.85,43872,8.56,73118.0,-12.01,-21.47,-22.17,0,*6E
1488935256.12,43873,8.56,73116.0,-12.01,-21.57,-22.27,0,*6D
1488935257.39,43874,8.56,73118.0,-12.01,-21.57,-22.27,0,*6A
1488935258.62,43875,8.56,73116.3,-12.05,-21.63,-22.21,0,*6E
1488935259.9,43876,8.56,73114.5,-12.01,-21.47,-22.17,0,*6A
1488935261.14,43877,8.56,73116.0,-12.01,-21.39,-22.11,0,*64
1488935262.43,43878,8.56,73116.5,-12.01,-21.57,-22.17,0,*65
1488935263.7,43879,8.56,73118.3,-12.01,-21.57,-22.27,0,*67
1488935265.0,43880,8.56,73116.3,-12.01,-21.67,-22.31,0,*65
1488935266.3,43881,8.56,73120.3,-12.01,-21.67,-22.31,0,*64
1488935267.56,43882,8.56,73116.0,-12.01,-21.67,-22.41,0,*60
1488935268.8,43883,8.56,73120.0,-12.01,-21.73,-22.41,0,*64
1488935270.05,43884,8.56,73118.3,-11.99,-21.67,-22.27,0,*64
1488935271.32,43885,8.56,73120.3,-12.01,-21.53,-22.11,0,*65
1488935272.56,43886,8.56,73116.3,-12.01,-21.47,-22.11,0,*63
1488935273.86,43887,8.56,73116.3,-12.01,-21.23,-21.97,0,*6D
1488935275.1,43888,8.56,73120.0,-11.99,-21.53,-22.03,0,*69
1488935276.35,43889,8.56,73118.5,-12.01,-21.47,-22.11,0,*6C
1488935277.59,43890,8.56,73116.3,-12.01,-21.47,-22.11,0,*64
1488935278.86,43891,8.56,73118.0,-11.99,-21.53,-22.17,0,*64
1488935280.14,43892,8.56,73116.8,-12.01,-21.53,-22.27,0,*66
1488935281.41,43893,8.56,73116.3,-12.01,-21.57,-22.27,0,*63
1488935282.7,43894,8.56,73116.0,-12.01,-21.57,-22.17,0,*67
1488935283.97,43895,8.56,73118.3,-12.01,-21.67,-22.27,0,*66
1488935285.22,43896,8.56,73118.0,-11.99,-21.73,-22.31,0,*65
1488935286.52,43897,8.56,73118.8,-12.01,-21.67,-22.31,0,*63
1488935287.79,43898,8.56,73116.3,-12.01,-21.57,-22.27,0,*68
1488935289.08,43899,8.56,73120.0,-12.01,-21.67,-22.31,0,*6D
1488935290.39,43900,8.56,73122.0,-12.01,-21.87,-22.47,0,*63
1488935291.66,43901,8.56,73118.0,-12.01,-21.53,-22.11,0,*68
1488935292.93,43902,8.56,73120.3,-12.01,-21.67,-22.27,0,*69
1488935294.23,43903,8.56,73120.0,-12.01,-21.83,-22.47,0,*64
1488935295.49,43904,8.63,73120.0,-12.01,-21.83,-22.41,0,*65
1488935296.79,43905,8.56,73120.0,-12.01,-21.83,-22.47,0,*62
1488935298.07,43906,8.56,73120.0,-12.01,-21.87,-22.53,0,*60
1488935299.33,43907,8.56,73118.5,-12.01,-21.57,-22.27,0,*6F
1488935300.57,43908,8.56,73118.8,-11.99,-21.83,-22.41,0,*6B